When you browse on this site, cookies collect data to enhance your experience and personalize the content and advertising you see.
Visit our Privacy Policy to learn more. By continuing to use the site, you agree to this use of cookies and data.
  • en Suisse
  • Liste des pays
  • À 7 jours
  • Température de l'eau
  • Carte météo
  • Widgets météo
  • user-avatar
    Se connecter

    Météo par heure à Barra

    Ce jour, 21 Août, Mercredi

    Heure Température Précipitation Vent Pression Humidité
    00:00 +18°C° 0.1 mm 4 m/s 754 mmHg 86%
    01:00 +18°C° 0.1 mm 4 m/s 754 mmHg 86%
    02:00 +17°C° 0 mm 4 m/s 753 mmHg 86%
    03:00 +17°C° 0 mm 4 m/s 753 mmHg 86%
    04:00 +15°C° 0 mm 4 m/s 753 mmHg 88%
    05:00 +15°C° 0 mm 4 m/s 753 mmHg 88%
    06:00 +14°C° 0 mm 4 m/s 753 mmHg 87%
    07:00 +14°C° 0 mm 4 m/s 754 mmHg 87%
    08:00 +17°C° 0 mm 4 m/s 754 mmHg 74%
    09:00 +19°C° 0 mm 4 m/s 754 mmHg 61%
    10:00 +21°C° 0 mm 4 m/s 754 mmHg 48%
    11:00 +22°C° 0 mm 4 m/s 754 mmHg 48%
    12:00 +22°C° 0 mm 5 m/s 753 mmHg 48%
    13:00 +23°C° 0 mm 5 m/s 752 mmHg 49%
    14:00 +22°C° 0 mm 4 m/s 752 mmHg 52%
    15:00 +22°C° 0 mm 4 m/s 752 mmHg 56%
    16:00 +22°C° 0 mm 4 m/s 751 mmHg 59%
    17:00 +20°C° 0 mm 3 m/s 752 mmHg 68%
    18:00 +18°C° 0 mm 3 m/s 752 mmHg 77%
    19:00 +17°C° 0 mm 2 m/s 753 mmHg 86%
    20:00 +16°C° 0 mm 2 m/s 753 mmHg 88%
    21:00 +16°C° 0 mm 2 m/s 753 mmHg 89%
    22:00 +16°C° 0 mm 2 m/s 754 mmHg 91%
    23:00 +16°C° 0 mm 2 m/s 753 mmHg 89%

    Demain, 22 Août, Jeudi

    Heure Température Précipitation Vent Pression Humidité
    00:00 +16°C° 0 mm 2 m/s 753 mmHg 86%
    01:00 +17°C° 0 mm 2 m/s 753 mmHg 84%
    02:00 +16°C° 0 mm 2 m/s 753 mmHg 87%
    03:00 +15°C° 0 mm 2 m/s 752 mmHg 89%
    04:00 +15°C° 0 mm 2 m/s 752 mmHg 91%
    05:00 +15°C° 0 mm 2 m/s 753 mmHg 91%
    06:00 +15°C° 0 mm 2 m/s 753 mmHg 91%
    07:00 +13°C° 0 mm 3 m/s 753 mmHg 91%
    08:00 +17°C° 0 mm 3 m/s 754 mmHg 76%
    09:00 +20°C° 0 mm 3 m/s 754 mmHg 62%
    10:00 +22°C° 0 mm 3 m/s 754 mmHg 47%
    11:00 +24°C° 0 mm 3 m/s 753 mmHg 42%
    12:00 +24°C° 0 mm 3 m/s 752 mmHg 37%
    13:00 +25°C° 0 mm 4 m/s 751 mmHg 32%
    14:00 +24°C° 0 mm 3 m/s 751 mmHg 35%
    15:00 +24°C° 0 mm 3 m/s 751 mmHg 37%
    16:00 +22°C° 0 mm 3 m/s 751 mmHg 39%
    17:00 +20°C° 0 mm 2 m/s 751 mmHg 47%
    18:00 +19°C° 0 mm 1 m/s 751 mmHg 54%
    19:00 +15°C° 0 mm 0 m/s 752 mmHg 62%
    20:00 +14°C° 0 mm 0 m/s 752 mmHg 64%
    21:00 +15°C° 0 mm 1 m/s 752 mmHg 66%
    22:00 +14°C° 0 mm 1 m/s 753 mmHg 69%
    23:00 +14°C° 0 mm 1 m/s 752 mmHg 69%

    Après-demain, 23 Août, Vendredi

    Heure Température Précipitation Vent Pression Humidité
    00:00 +14°C° 0 mm 1 m/s 752 mmHg 70%
    01:00 +13°C° 0 mm 2 m/s 752 mmHg 70%
    02:00 +13°C° 0 mm 2 m/s 752 mmHg 71%
    03:00 +13°C° 0 mm 2 m/s 752 mmHg 71%
    04:00 +13°C° 0 mm 2 m/s 752 mmHg 72%
    05:00 +13°C° 0 mm 2 m/s 752 mmHg 71%
    06:00 +13°C° 0 mm 2 m/s 753 mmHg 71%
    07:00 +13°C° 0 mm 2 m/s 753 mmHg 71%
    08:00 +16°C° 0 mm 2 m/s 753 mmHg 63%
    09:00 +19°C° 0 mm 2 m/s 753 mmHg 55%
    10:00 +23°C° 0 mm 2 m/s 754 mmHg 48%
    11:00 +22°C° 0 mm 3 m/s 753 mmHg 48%
    12:00 +23°C° 0 mm 4 m/s 752 mmHg 48%
    13:00 +23°C° 0 mm 4 m/s 751 mmHg 47%
    14:00 +23°C° 0 mm 4 m/s 751 mmHg 49%
    15:00 +22°C° 0 mm 4 m/s 751 mmHg 50%
    16:00 +22°C° 0 mm 3 m/s 751 mmHg 51%
    17:00 +20°C° 0 mm 3 m/s 751 mmHg 59%
    18:00 +18°C° 0 mm 2 m/s 752 mmHg 67%
    19:00 +16°C° 0 mm 2 m/s 752 mmHg 75%
    20:00 +15°C° 0 mm 2 m/s 753 mmHg 78%
    21:00 +15°C° 0 mm 2 m/s 753 mmHg 80%
    22:00 +15°C° 0 mm 2 m/s 753 mmHg 82%
    23:00 +15°C° 0 mm 2 m/s 753 mmHg 80%

    24 Août, Samedi

    Heure Température Précipitation Vent Pression Humidité
    00:00 +16°C° 0 mm 2 m/s 753 mmHg 78%
    01:00 +16°C° 0 mm 2 m/s 753 mmHg 76%
    02:00 +16°C° 0 mm 2 m/s 753 mmHg 75%
    03:00 +17°C° 0 mm 2 m/s 753 mmHg 75%
    04:00 +17°C° 0 mm 2 m/s 752 mmHg 75%
    05:00 +18°C° 0 mm 1 m/s 753 mmHg 75%
    06:00 +18°C° 0 mm 1 m/s 753 mmHg 76%
    07:00 +18°C° 0 mm 1 m/s 753 mmHg 76%
    08:00 +20°C° 0 mm 1 m/s 753 mmHg 72%
    09:00 +21°C° 0 mm 2 m/s 753 mmHg 68%
    10:00 +23°C° 0 mm 2 m/s 753 mmHg 64%
    11:00 +24°C° 0 mm 2 m/s 753 mmHg 61%
    12:00 +25°C° 0 mm 3 m/s 752 mmHg 59%
    13:00 +25°C° 0 mm 3 m/s 751 mmHg 57%
    14:00 +25°C° 0 mm 3 m/s 751 mmHg 59%
    15:00 +24°C° 0 mm 3 m/s 751 mmHg 61%
    16:00 +24°C° 0 mm 3 m/s 750 mmHg 63%
    17:00 +21°C° 0.1 mm 3 m/s 751 mmHg 73%
    18:00 +20°C° 0.1 mm 3 m/s 751 mmHg 83%
    19:00 +18°C° 0.1 mm 2 m/s 752 mmHg 93%
    20:00 +18°C° 0.2 mm 3 m/s 752 mmHg 93%
    21:00 +18°C° 0.2 mm 3 m/s 752 mmHg 93%
    22:00 +18°C° 0.2 mm 3 m/s 752 mmHg 94%
    23:00 +18°C° 0.3 mm 3 m/s 752 mmHg 93%

    25 Août, Dimanche

    Heure Température Précipitation Vent Pression Humidité
    00:00 +18°C° 0.3 mm 3 m/s 752 mmHg 92%
    01:00 +19°C° 0.3 mm 4 m/s 751 mmHg 92%
    02:00 +19°C° 0.3 mm 4 m/s 751 mmHg 92%
    03:00 +19°C° 0.3 mm 3 m/s 751 mmHg 92%
    04:00 +18°C° 0.3 mm 3 m/s 751 mmHg 92%
    05:00 +18°C° 0.2 mm 3 m/s 751 mmHg 92%
    06:00 +18°C° 0.2 mm 3 m/s 752 mmHg 92%
    07:00 +18°C° 0.2 mm 3 m/s 752 mmHg 93%
    08:00 +19°C° 0.2 mm 3 m/s 752 mmHg 88%
    09:00 +20°C° 0.2 mm 3 m/s 752 mmHg 83%
    10:00 +22°C° 0.2 mm 4 m/s 752 mmHg 79%
    11:00 +23°C° 0.1 mm 4 m/s 752 mmHg 72%
    12:00 +23°C° 0.1 mm 4 m/s 751 mmHg 66%
    13:00 +25°C° 0.1 mm 4 m/s 750 mmHg 60%
    14:00 +25°C° 0 mm 4 m/s 750 mmHg 60%
    15:00 +25°C° 0 mm 4 m/s 749 mmHg 61%
    16:00 +24°C° 0 mm 3 m/s 749 mmHg 61%
    17:00 +22°C° 0 mm 3 m/s 749 mmHg 70%
    18:00 +20°C° 0 mm 2 m/s 750 mmHg 79%
    19:00 +18°C° 0 mm 2 m/s 750 mmHg 88%
    20:00 +18°C° 0 mm 2 m/s 750 mmHg 90%
    21:00 +18°C° 0 mm 2 m/s 751 mmHg 91%
    22:00 +17°C° 0 mm 2 m/s 751 mmHg 92%
    23:00 +18°C° 0.1 mm 2 m/s 751 mmHg 92%

    26 Août, Lundi

    Heure Température Précipitation Vent Pression Humidité
    00:00 +18°C° 0.1 mm 2 m/s 751 mmHg 92%
    01:00 +18°C° 0.1 mm 2 m/s 751 mmHg 92%
    02:00 +18°C° 0.1 mm 2 m/s 751 mmHg 93%
    03:00 +17°C° 0.1 mm 2 m/s 751 mmHg 94%
    04:00 +17°C° 0.1 mm 2 m/s 750 mmHg 95%
    05:00 +17°C° 0.1 mm 3 m/s 751 mmHg 94%
    06:00 +17°C° 0.1 mm 3 m/s 751 mmHg 94%
    07:00 +18°C° 0.1 mm 3 m/s 752 mmHg 93%
    08:00 +19°C° 0.3 mm 3 m/s 752 mmHg 89%
    09:00 +20°C° 0.3 mm 4 m/s 752 mmHg 84%
    10:00 +21°C° 0.3 mm 4 m/s 752 mmHg 80%
    11:00 +22°C° 0.2 mm 4 m/s 751 mmHg 74%
    12:00 +23°C° 0.2 mm 4 m/s 751 mmHg 67%
    13:00 +25°C° 0.2 mm 4 m/s 750 mmHg 61%
    14:00 +25°C° 0 mm 4 m/s 750 mmHg 60%
    15:00 +25°C° 0 mm 4 m/s 749 mmHg 58%
    16:00 +24°C° 0 mm 3 m/s 749 mmHg 57%
    17:00 +22°C° 0 mm 3 m/s 749 mmHg 65%
    18:00 +20°C° 0 mm 3 m/s 750 mmHg 73%
    19:00 +18°C° 0 mm 2 m/s 750 mmHg 82%
    20:00 +17°C° 0 mm 2 m/s 751 mmHg 83%
    21:00 +17°C° 0 mm 3 m/s 751 mmHg 85%
    22:00 +17°C° 0 mm 3 m/s 752 mmHg 87%
    23:00 +16°C° 0 mm 3 m/s 752 mmHg 87%
    Voir plus